Voltar ao catálogo

STARLINK-11589

AtivoComunicaçõesVLEO
NORAD 63311·PAYLOAD·🇺🇸 United States

Lançado Mar 18, 2025 de Cape Canaveral Space Force Station

Loading…

Próximas Passagens (próximas 24 horas)

TLE

AtualizadoSource: CelesTrak SupGP

Época: Sep 15, 2026, 03:46 UTC

1 63311C 25057E   26258.15743056 -.00040920  00000+0 -31784-3 0  2587
2 63311  43.0006 202.8989 0001489 266.1814  10.8041 15.70858217    16

Acompanhe STARLINK-11589 em tempo real com AllMySat

Download on the App Store